Location: *
(17.3280°S, 114.7300°W)
Time: 11:29:58
(UTC+00:00)

Envisat - Pass Details

Date: 02 November 2020
Orbit: 764 x 766 km, 98.1° (Epoch: 28 November)

Event Time Altitude Azimuth Distance (km) Brightness Sun altitude
Rises 11:56:18 0° 52° (NE) 3,217 6.7 -15.2°
Reaches altitude 10° 11:59:36 10° 75° (ENE) 2,299 6.3 -14.4°
Maximum altitude 12:02:20 15° 108° (ESE) 1,996 6.4 -13.8°
Drops below altitude 10° 12:05:04 10° 141° (SE) 2,311 6.5 -13.2°
Sets 12:08:23 0° 164° (SSE) 3,245 6.8 -12.5°
